CAPE
0 0 87 30 9 288 82 4 8 6 3 4 7 4 4 5 8 10 3 10 10 1 5 8 7 7 5 5 1 0 0 0 0 0 0 0 3 7 2 0 0 1 2
0 0 41 4 0 109 168 8 5 4 5 5 5 4 6 7 8 6 8 6 4 4 4 4 2 4 5 5 0 0 0 0 0 0 0 4 9 6 1 0 0 0 0
0 0 1 0 0 53 184 31 4 4 4 4 6 5 2 5 12 9 3 6 5 21 17 4 6 7 5 3 0 0 0 0 0 0 0 0 0 22 8 0 0 0 0
0 0 1 0 0 47 145 35 2 2 1 2 3 6 7 7 8 7 3 7 18 6 5 6 4 2 0 0 0 0 0 0 0 0 0 0 0 0 1 1 1 0 0
0 0 1 27 0 16 95 65 11 0 0 1 4 4 3 6 4 3 5 8 8 7 6 5 2 1 0 0 0 0 0 0 0 1 1 0 1 0 0 3 4 1 0
0 3 0 5 31 19 64 85 44 0 0 2 5 5 5 8 6 5 8 6 5 6 6 5 4 2 0 0 0 0 0 0 0 12 9 8 8 3 37 0 0 2 11
0 6 0 0 43 86 34 104 56 0 0 0 4 5 7 3 2 1 3 0 0 0 0 0 0 0 0 0 0 0 0 0 1 4 9 11 4 3 46 26 25 29 20
0 7 21 27 80 86 60 114 64 0 0 0 3 3 4 1 0 0 0 0 0 0 0 0 0 0 0 0 0 0 0 0 17 9 7 16 0 20 49 32 38 45 44
1 15 44 120 164 97 33 73 25 0 0 5 7 9 8 0 0 0 0 0 0 0 0 0 0 0 0 0 0 0 0 0 9 8 3 0 0 47 41 38 42 47 43
0 10 12 33 114 85 39 25 0 0 0 0 0 0 0 0 0 0 0 0 0 0 0 0 0 0 0 0 0 0 0 0 2 4 3 0 2 43 43 41 30 37 33
0 1 23 74 43 49 2 0 0 0 0 0 0 0 0 0 0 0 0 0 0 0 0 0 0 0 0 0 0 0 0 0 0 1 0 18 37 37 28 12 11 28 35
0 0 10 62 67 28 1 0 0 0 0 0 0 0 0 0 0 0 0 0 0 0 0 0 0 0 0 0 0 0 0 0 0 0 0 0 9 21 16 16 29 29 31
4 0 0 4 7 7 3 0 0 0 0 0 0 0 0 0 0 0 0 0 3 0 30 15 1 0 0 0 0 0 0 0 0 0 0 0 6 35 38 28 16 6 10
7 5 4 0 1 0 0 0 0 0 0 1 4 0 0 2 3 14 12 15 37 20 10 2 0 0 0 0 0 0 0 0 0 1 0 0 0 13 19 14 10 4 2
3 2 5 11 2 0 0 0 0 0 0 2 3 1 2 8 13 20 22 18 2 0 0 0 0 0 0 0 0 0 0 0 0 0 0 0 0 3 4 3 4 7 6
5 1 1 2 6 0 0 0 0 0 0 5 7 4 6 15 22 19 18 1 0 0 0 0 0 0 0 0 0 0 0 0 0 0 0 0 0 0 0 1 2 2 6
3 5 3 3 4 0 0 0 0 0 9 8 4 12 11 24 41 14 1 0 0 0 0 0 0 0 0 0 0 0 0 0 0 0 0 0 0 0 0 0 1 2 3
1 4 3 2 0 0 0 0 0 14 5 9 5 11 31 0 0 0 0 0 0 0 0 0 0 0 0 0 0 0 0 0 0 0 0 0 0 0 0 0 0 0 1
2 3 2 1 1 2 0 0 6 19 10 2 0 9 0 0 0 0 0 0 0 0 0 0 0 0 0 0 0 0 0 0 0 0 0 0 0 0 0 0 0 0 0
2 2 2 3 7 2 0 0 1 0 0 0 0 0 0 0 0 0 0 0 0 0 0 0 0 0 0 0 0 0 0 0 0 0 0 0 0 0 0 0 0 0 0
1 3 1 4 12 2 0 2 0 0 0 0 0 0 0 0 0 0 0 0 0 0 0 0 0 0 0 0 0 0 0 0 0 0 0 0 0 0 0 0 0 0 0
0 2 1 9 24 0 0 0 0 0 0 0 0 0 0 0 0 0 0 0 0 0 0 0 0 0 0 0 0 0 0 0 0 0 0 0 0 0 0 0 0 0 0
4 4 5 7 8 2 0 1 0 0 0 0 0 0 0 0 0 0 0 0 0 0 0 0 0 0 0 0 0 0 0 0 0 0 0 0 0 0 0 0 0 0 0
7 1 4 5 7 2 0 0 0 0 0 0 0 0 0 0 0 0 0 0 0 0 0 0 0 0 0 0 0 0 0 0 0 0 0 0 0 0 0 0 0 0 0
8 7 3 1 7 4 0 0 0 0 0 0 0 0 0 0 0 0 0 0 0 0 0 0 0 0 0 0 0 0 0 0 0 0 0 0 0 0 0 0 0 0 0
7 17 13 4 9 0 0 0 0 0 0 0 0 0 0 0 0 0 0 0 0 0 0 0 0 0 0 0 0 0 0 0 0 0 0 0 0 0 0 0 0 0 0
CIN
0 0 -46 -99 -132 0 -21 0 0 -2 0 0 0 0 0 0 0 0 0 -1 -1 -1 0 0 0 0 0 0 0 0 0 0 0 0 0 0 -1 0 0 0 0 -1 0
0 0 -92 -87 0 -26 -3 -60 0 -1 0 0 0 0 0 0 0 -1 -1 0 0 0 0 0 0 0 0 0 0 0 0 0 0 0 0 -10 -7 0 0 0 0 0 0
0 0 0 0 0 -37 -2 -40 -2 -1 0 0 0 0 0 0 0 0 0 -1 0 -3 -1 -1 0 0 0 0 0 0 0 0 0 0 0 0 0 -2 -1 0 0 0 0
0 0 -1 0 0 -44 -2 -16 -2 -3 0 0 0 0 0 0 0 0 -1 -1 -2 -1 0 0 0 0 0 0 0 0 0 0 0 0 0 0 0 0 0 0 0 0 0
0 0 -1 -117 0 -100 -7 -8 -28 0 0 0 0 0 0 0 0 0 0 -1 0 0 0 0 0 0 0 0 0 0 0 0 0 0 0 0 0 0 0 0 0 0 0
0 -1 0 -33 -84 -102 -27 -8 -21 0 0 0 0 0 0 0 0 0 0 0 0 0 0 0 0 0 0 0 0 0 0 0 0 -1 0 -1 -1 -3 0 0 0 0 -1
-1 -1 0 0 -72 -18 -87 -7 -31 0 0 0 0 0 0 0 0 0 0 0 0 0 0 0 0 0 0 0 0 0 0 0 -2 -3 -5 -3 -6 -3 0 0 0 -2 -3
-1 -1 -77 -112 -42 -24 -34 -11 -42 0 0 0 -1 0 0 0 0 0 0 0 0 0 0 0 0 0 0 0 0 0 0 0 -10 0 0 0 0 -1 0 -2 -1 0 0
-2 -2 -123 -37 -12 -23 -44 -15 -14 0 0 -1 -1 -1 -2 0 0 0 0 0 0 0 0 0 0 0 0 0 0 0 0 0 -10 0 -1 0 0 0 0 0 0 0 0
0 -1 -7 -86 -25 -23 -40 -2 0 0 0 0 0 0 0 0 0 0 0 0 0 0 0 0 0 0 0 0 0 0 0 0 0 0 -1 0 -1 0 0 0 0 0 0
0 -1 -1 -44 -55 -34 -1 0 0 0 0 0 0 0 0 0 0 0 0 0 0 0 0 0 0 0 0 0 0 0 0 0 0 -1 0 -3 0 0 0 0 0 0 0
0 0 -1 -41 -42 -6 -9 0 0 0 0 0 0 0 0 0 0 0 0 0 0 0 0 0 0 0 0 0 0 0 0 0 0 0 0 -2 -1 0 0 0 -1 0 0
-1 0 0 -1 0 -3 -1 0 0 0 0 0 0 0 0 0 0 0 0 0 -5 -1 -6 -4 0 0 0 0 0 0 0 0 0 0 0 0 -1 0 0 0 -1 0 -3
-1 0 0 -1 -1 0 0 0 0 0 0 0 0 0 0 0 0 0 0 -1 -1 0 -1 -1 0 0 0 0 0 0 0 0 0 0 0 0 0 0 0 0 -1 0 -1
-1 -6 0 -1 -1 0 0 0 0 0 0 0 0 0 0 0 -1 0 -1 -3 -2 0 -6 0 0 0 0 0 0 0 0 0 0 0 0 0 0 0 0 -1 -1 0 0
-1 -3 -4 -4 -1 0 0 0 0 0 0 0 0 0 0 -1 -1 -5 -1 0 0 0 0 0 0 0 0 0 0 0 0 0 0 0 0 0 0 0 0 0 0 0 0
-1 -3 -4 0 -1 0 0 0 0 0 -1 0 -1 0 -1 0 -1 -5 -17 0 0 0 0 0 0 0 0 0 0 0 0 0 0 0 0 0 0 0 0 0 -1 0 0
-1 -3 -1 -1 -1 0 0 0 0 0 -2 -3 -1 -1 0 0 0 0 0 0 0 0 0 0 0 0 0 0 0 0 0 0 0 0 0 0 0 0 0 0 0 0 0
-1 -2 -1 -1 -1 -1 0 0 -1 -4 -8 -5 0 0 0 -8 0 0 0 0 0 0 0 0 0 0 0 0 0 0 0 0 0 0 0 0 0 0 0 0 0 0 0
-1 0 -1 -1 -2 -1 0 -1 -14 -1 0 0 0 0 0 0 0 0 0 0 0 0 0 0 0 0 0 0 0 0 0 0 0 0 0 0 0 0 0 0 0 0 0
-1 -1 -1 -1 0 -2 0 -1 0 0 0 0 0 0 0 0 0 0 0 0 0 0 0 0 0 0 0 0 0 0 0 0 0 0 0 0 0 0 0 0 0 0 0
0 -1 0 0 0 -6 0 0 0 0 0 0 0 0 0 0 0 0 0 0 0 0 0 0 0 0 0 0 0 0 0 0 0 0 0 0 0 0 0 0 0 0 0
0 0 0 -1 -2 -5 0 0 0 0 0 0 0 0 0 0 0 0 0 0 0 0 0 0 0 0 0 0 0 0 0 0 0 0 0 0 0 0 0 0 0 0 0
-133 0 0 -1 -2 -3 0 0 0 0 0 0 0 0 0 0 0 0 0 0 0 0 0 0 0 0 0 0 0 0 0 0 0 0 0 0 0 0 0 0 0 0 0
-109 -41 0 0 -1 -1 0 0 0 0 0 0 0 0 0 0 0 0 0 0 0 0 0 0 0 0 0 0 0 0 0 0 0 0 0 0 0 0 0 0 0 0 0
-41 -95 0 0 -1 -1 0 0 0 0 0 0 0 0 0 0 0 0 0 0 0 0 0 0 0 0 0 0 0 0 0 0 0 0 0 0 0 0 0 0 0 0 0
Wind_Speed
10 12 14 13 9 5 8 9 10 12 13 14 14 14 14 13 14 14 15 15 14 14 14 14 14 15 16 18 19 20 22 22 22 22 22 23 24 24 23 22 21 21 22
15 16 15 12 9 7 11 10 10 11 13 14 14 14 14 14 14 12 12 12 12 12 13 14 16 17 18 19 21 21 22 22 22 21 21 21 24 24 23 23 23 23 23
14 14 15 11 10 6 10 10 11 11 12 13 14 13 13 12 12 11 11 11 12 14 16 17 18 18 19 20 21 21 22 22 21 21 21 21 22 23 24 24 24 24 24
13 12 12 12 12 10 12 12 13 12 13 13 13 13 11 11 11 11 12 12 13 15 17 18 19 19 19 19 20 21 21 21 21 21 21 22 22 24 24 25 25 25 25
10 11 9 13 13 14 13 15 15 14 13 12 11 11 11 11 11 12 12 13 15 16 18 19 19 19 20 20 20 21 21 21 21 21 21 23 23 24 25 24 25 25 26
8 9 7 10 13 14 14 15 13 11 10 10 10 10 10 10 11 11 12 13 14 16 17 18 19 20 20 21 21 21 22 21 20 21 22 22 23 25 26 25 25 26 26
5 4 4 5 10 12 12 11 11 10 9 9 9 9 10 10 11 12 13 13 14 15 16 17 18 19 20 21 21 22 22 22 21 22 23 23 25 27 27 25 27 28 28
4 2 1 0 4 10 11 10 10 8 8 9 9 9 9 10 11 11 12 13 14 15 16 17 18 19 20 21 22 23 23 23 19 22 23 24 27 28 26 26 27 27 27
5 1 2 1 2 8 8 9 8 8 7 7 7 8 8 9 9 10 11 12 13 14 15 17 18 19 20 21 22 23 23 22 23 23 24 25 27 25 26 26 27 28 28
4 5 1 1 4 7 6 7 6 5 5 6 6 6 7 8 8 9 10 11 12 13 15 17 18 19 20 22 23 23 22 22 23 24 25 26 27 25 26 27 28 28 28
3 4 4 2 2 4 3 4 3 2 4 5 5 6 6 7 8 8 10 10 12 13 15 16 18 19 19 20 23 22 23 23 23 25 26 26 24 25 27 27 28 28 28
5 5 5 4 3 3 2 3 0 1 3 4 5 5 5 6 7 7 9 9 11 12 14 16 18 18 21 21 21 22 22 22 23 25 26 27 26 27 27 28 27 28 28
7 6 6 6 5 4 4 4 5 4 3 3 3 3 5 5 7 7 8 8 9 11 12 15 19 21 22 22 22 22 21 22 22 23 27 27 27 27 28 28 29 29 29
9 9 8 7 7 7 7 7 7 6 6 5 4 3 5 6 7 8 9 10 11 14 16 18 18 20 20 21 21 21 22 21 21 23 28 28 28 28 28 29 30 30 30
10 11 10 9 9 8 9 10 9 8 6 5 5 5 6 7 8 9 10 12 13 14 16 18 18 19 20 20 20 21 21 21 21 21 24 27 27 28 29 29 30 30 30
14 14 14 12 10 9 10 11 10 9 7 6 6 7 8 9 10 10 11 13 15 16 17 18 19 19 19 19 20 21 21 21 21 21 21 25 27 28 29 29 29 29 29
13 16 17 15 12 12 11 10 10 10 9 9 9 8 8 10 10 11 12 14 16 16 17 17 18 18 17 18 19 20 22 23 22 22 23 22 24 27 28 28 28 28 29
14 15 17 17 15 13 12 10 10 9 9 10 9 8 10 9 10 11 13 15 16 17 17 18 18 17 17 17 19 22 22 22 22 23 23 23 23 23 26 27 28 29 30
16 15 17 17 15 14 13 11 10 10 10 10 9 9 9 10 11 12 13 15 16 16 17 17 18 18 18 19 21 21 22 22 22 22 22 22 22 23 23 25 27 29 30
22 18 17 17 16 14 13 12 11 12 11 11 11 11 10 11 12 12 14 15 16 16 17 18 18 18 19 19 20 22 22 21 21 21 21 21 22 23 24 25 26 27 29
23 21 18 18 17 15 14 14 14 15 13 13 13 13 13 13 13 13 14 15 16 17 17 17 17 18 20 19 21 23 22 22 21 20 20 20 22 23 25 26 28 28 29
24 22 21 19 18 17 15 15 16 13 14 12 13 13 13 13 13 13 14 15 16 15 16 18 19 21 22 22 23 21 23 20 19 20 21 21 22 23 25 26 28 29 30
25 25 21 21 19 18 16 15 13 13 14 15 14 14 14 14 13 13 13 14 14 15 18 20 21 21 21 21 21 21 23 24 18 19 21 22 23 24 24 25 28 30 31
25 25 22 20 20 19 17 17 17 17 17 17 14 13 13 13 13 13 13 14 15 17 19 20 21 20 19 17 19 20 21 21 23 23 20 22 22 24 25 26 28 30 32
25 25 24 21 21 21 19 19 18 18 15 13 12 12 11 12 12 12 12 14 15 17 18 19 19 18 18 18 19 19 21 22 25 25 26 25 22 24 25 27 29 30 32
26 25 25 22 21 20 20 20 19 17 15 13 13 12 12 11 11 11 12 12 14 16 17 17 18 18 18 18 19 21 23 23 26 26 27 28 28 27 28 27 28 30 32
Wind_Direction
102 106 107 103 86 65 78 70 60 53 42 48 52 41 43 30 32 32 33 30 20 12 8 4 5 7 6 7 11 18 23 21 16 16 21 22 14 13 4 353 334 349 343
112 115 115 105 96 87 98 81 66 58 50 56 51 54 44 39 34 22 18 13 5 359 2 7 12 14 17 17 20 22 22 21 20 19 24 34 19 14 7 360 357 354 350
110 112 117 108 105 101 104 91 81 65 56 58 57 52 44 36 23 12 9 5 5 14 16 18 22 23 23 22 22 22 21 20 19 19 11 13 17 5 7 6 2 360 358
109 109 112 112 113 111 107 103 94 81 63 60 62 54 40 26 14 14 9 5 8 17 21 26 29 28 26 22 19 17 14 13 14 11 15 7 8 11 5 5 5 2 356
103 109 104 116 118 121 112 114 108 95 72 62 57 50 42 35 24 17 17 16 21 26 30 32 29 27 27 24 19 12 6 1 3 2 7 4 0 359 356 356 354 355 356
101 105 103 115 121 125 121 119 110 96 70 58 58 53 41 26 18 17 16 18 24 29 27 24 25 28 29 27 20 12 4 356 322 4 1 6 3 353 351 355 351 350 353
97 91 102 114 125 131 127 119 113 99 74 57 58 52 39 30 31 32 32 31 29 26 28 27 26 24 21 17 14 9 2 357 360 358 356 359 353 342 344 360 353 347 352
95 72 78 215 132 139 133 124 116 102 76 65 64 58 49 37 39 40 37 33 29 27 24 21 19 16 13 15 13 10 7 3 29 10 7 4 350 347 4 8 5 4 2
98 69 302 74 93 131 133 127 119 107 79 51 54 53 42 37 35 29 26 23 22 20 17 12 9 11 15 16 13 12 15 18 7 10 6 3 356 7 7 10 8 6 4
119 117 300 126 114 121 128 128 119 98 58 40 28 22 23 21 17 19 24 14 14 10 6 7 9 12 15 10 1 359 10 11 4 3 2 359 360 13 14 13 10 8 5
166 152 137 167 154 131 145 139 117 54 34 39 36 25 27 21 34 43 1 9 5 3 7 7 5 2 12 15 9 7 1 5 7 4 2 5 17 17 15 11 8 7 8
214 182 181 165 173 183 205 186 225 6 48 67 68 66 38 22 30 20 17 17 11 14 18 14 7 9 356 2 6 9 9 13 13 9 6 5 9 9 10 8 7 9 6
225 213 200 197 215 212 241 243 278 294 322 347 32 52 356 359 350 4 9 10 14 23 24 11 354 354 356 358 1 4 10 11 13 10 1 1 5 8 10 13 8 4 1
214 238 221 215 215 235 255 258 271 281 291 303 313 331 336 330 332 333 333 340 342 338 345 348 353 356 358 -0 2 4 4 7 9 8 2 4 8 10 8 7 3 1 358
232 231 235 230 234 238 252 260 268 274 280 291 295 302 314 319 320 322 327 331 335 338 339 342 346 349 352 356 359 2 3 5 7 8 5 3 4 4 2 2 1 1 360
247 237 238 239 238 244 252 260 266 271 272 279 288 293 300 308 310 315 324 326 327 329 333 336 340 344 349 354 356 358 360 0 1 2 4 1 2 1 -0 1 359 1 1
243 245 240 242 240 247 253 258 265 270 274 277 283 289 295 303 308 315 321 322 324 328 331 336 340 345 350 355 356 356 354 354 355 354 357 1 3 3 2 1 2 2 0
245 243 239 241 240 243 250 254 263 268 273 279 285 290 297 299 309 311 315 320 323 326 330 333 338 343 348 350 350 349 351 353 355 355 355 358 0 2 3 3 2 1 359
246 240 238 235 236 238 245 250 260 267 276 283 292 299 298 302 307 311 315 320 324 326 329 333 336 338 339 341 342 346 348 349 351 354 355 360 360 359 0 0 360 359 358
250 247 241 233 236 232 240 246 258 264 273 278 284 293 298 301 305 309 314 318 322 325 327 331 335 338 339 341 342 342 343 347 349 351 355 360 2 -0 359 357 355 356 356
247 245 241 232 231 230 231 239 251 259 265 275 283 289 296 301 307 309 313 318 322 323 325 331 338 338 336 340 339 339 343 345 350 354 355 356 356 356 356 355 353 352 350
243 242 240 235 232 230 237 244 256 250 266 273 282 290 297 302 307 310 314 318 321 326 330 329 326 327 331 330 330 334 332 341 350 351 351 351 352 352 351 353 352 351 349
237 238 233 233 231 231 238 241 250 258 266 271 277 285 294 300 308 313 318 320 323 328 326 326 328 326 328 338 339 333 330 332 343 347 348 347 349 350 351 351 350 349 348
237 238 235 229 231 233 234 239 238 246 254 268 269 281 293 304 309 316 322 325 326 329 330 331 335 337 338 340 346 348 347 342 335 335 342 345 349 349 349 347 346 347 347
235 233 233 229 232 235 237 242 242 251 259 263 269 275 288 302 310 315 323 328 331 333 338 341 344 350 349 349 351 347 347 346 341 338 335 339 348 347 345 344 344 345 346
233 230 231 223 231 233 237 243 243 242 247 252 260 268 281 293 307 318 325 331 336 337 343 342 347 355 356 2 357 351 347 344 343 343 339 339 340 340 341 344 344 345 346